Year,Month,Day,Hour,Minute,Value (Times are PST for temperature in C)
2011,09,27,00,00,15.30
2011,09,27,00,01,15.30
2011,09,27,00,02,15.30
2011,09,27,00,03,15.30
2011,09,27,00,04,15.30
2011,09,27,00,05,15.30
2011,09,27,00,06,15.30
2011,09,27,00,07,15.30
2011,09,27,00,08,15.30
2011,09,27,00,09,15.30
2011,09,27,00,10,15.30
2011,09,27,00,11,15.30
2011,09,27,00,12,15.30
2011,09,27,00,13,15.30
2011,09,27,00,14,15.30
2011,09,27,00,15,15.30
2011,09,27,00,16,15.30
2011,09,27,00,17,15.30
2011,09,27,00,18,15.30
2011,09,27,00,19,15.30
2011,09,27,00,20,15.30
2011,09,27,00,21,15.30
2011,09,27,00,22,15.30
2011,09,27,00,23,15.30
2011,09,27,00,24,15.30
2011,09,27,00,25,15.30
2011,09,27,00,26,15.20
2011,09,27,00,27,15.10
2011,09,27,00,28,14.80
2011,09,27,00,29,14.50
2011,09,27,00,30,14.30
2011,09,27,00,31,14.00
2011,09,27,00,32,13.80
2011,09,27,00,33,13.60
2011,09,27,00,34,13.50
2011,09,27,00,35,13.30
2011,09,27,00,36,13.10
2011,09,27,00,37,12.90
2011,09,27,00,38,12.80
2011,09,27,00,39,12.60
2011,09,27,00,40,12.50
2011,09,27,00,41,12.40
2011,09,27,00,42,12.30
2011,09,27,00,43,12.30
2011,09,27,00,44,12.30
2011,09,27,00,45,12.50
2011,09,27,00,46,12.70
2011,09,27,00,47,13.00
2011,09,27,00,48,13.10
2011,09,27,00,49,13.20
2011,09,27,00,50,13.20
2011,09,27,00,51,13.10
2011,09,27,00,52,13.10
2011,09,27,00,53,13.10
2011,09,27,00,54,13.20
2011,09,27,00,55,13.30
2011,09,27,00,56,13.40
2011,09,27,00,57,13.50
2011,09,27,00,58,13.60
2011,09,27,00,59,13.70
2011,09,27,01,00,13.90
2011,09,27,01,01,14.00
2011,09,27,01,02,14.10
2011,09,27,01,03,14.30
2011,09,27,01,04,14.40
2011,09,27,01,05,14.40
2011,09,27,01,06,14.40
2011,09,27,01,07,14.50
2011,09,27,01,08,14.50
2011,09,27,01,09,14.40
2011,09,27,01,10,14.40
2011,09,27,01,11,14.40
2011,09,27,01,12,14.50
2011,09,27,01,13,14.50
2011,09,27,01,14,14.60
2011,09,27,01,15,14.60
2011,09,27,01,16,14.70
2011,09,27,01,17,14.70
2011,09,27,01,18,14.70
2011,09,27,01,19,14.70
2011,09,27,01,20,14.70
2011,09,27,01,21,14.70
2011,09,27,01,22,14.70
2011,09,27,01,23,14.70
2011,09,27,01,24,14.70
2011,09,27,01,25,14.70
2011,09,27,01,26,14.80
2011,09,27,01,27,14.80
2011,09,27,01,28,14.80
2011,09,27,01,29,14.80
2011,09,27,01,30,14.80
2011,09,27,01,31,14.80
2011,09,27,01,32,14.80
2011,09,27,01,33,14.80
2011,09,27,01,34,14.70
2011,09,27,01,35,14.70
2011,09,27,01,36,14.70
2011,09,27,01,37,14.70
2011,09,27,01,38,14.80
2011,09,27,01,39,14.80
2011,09,27,01,40,14.80
2011,09,27,01,41,14.80
2011,09,27,01,42,14.80
2011,09,27,01,43,14.80
2011,09,27,01,44,14.80
2011,09,27,01,45,14.80
2011,09,27,01,46,14.80
2011,09,27,01,47,14.80
2011,09,27,01,48,14.80
2011,09,27,01,49,14.80
2011,09,27,01,50,14.80
2011,09,27,01,51,14.80
2011,09,27,01,52,14.80
2011,09,27,01,53,14.80
2011,09,27,01,54,14.90
2011,09,27,01,55,14.90
2011,09,27,01,56,14.90
2011,09,27,01,57,14.90
2011,09,27,01,58,14.80
2011,09,27,01,59,14.80
2011,09,27,02,00,14.80
2011,09,27,02,01,14.80
2011,09,27,02,02,14.80
2011,09,27,02,03,14.80
2011,09,27,02,04,14.80
2011,09,27,02,05,14.80
2011,09,27,02,06,14.80
2011,09,27,02,07,14.80
2011,09,27,02,08,14.80
2011,09,27,02,09,14.70
2011,09,27,02,10,14.70
2011,09,27,02,11,14.70
2011,09,27,02,12,14.70
2011,09,27,02,13,14.60
2011,09,27,02,14,14.60
2011,09,27,02,15,14.60
2011,09,27,02,16,14.60
2011,09,27,02,17,14.60
2011,09,27,02,18,14.70
2011,09,27,02,19,14.70
2011,09,27,02,20,14.70
2011,09,27,02,21,14.70
2011,09,27,02,22,14.70
2011,09,27,02,23,14.70
2011,09,27,02,24,14.70
2011,09,27,02,25,14.70
2011,09,27,02,26,14.70
2011,09,27,02,27,14.70
2011,09,27,02,28,14.70
2011,09,27,02,29,14.70
2011,09,27,02,30,14.80
2011,09,27,02,31,14.80
2011,09,27,02,32,14.80
2011,09,27,02,33,14.80
2011,09,27,02,34,14.80
2011,09,27,02,35,14.70
2011,09,27,02,36,14.70
2011,09,27,02,37,14.70
2011,09,27,02,38,14.70
2011,09,27,02,39,14.70
2011,09,27,02,40,14.80
2011,09,27,02,41,14.80
2011,09,27,02,42,14.80
2011,09,27,02,43,14.80
2011,09,27,02,44,14.70
2011,09,27,02,45,14.60
2011,09,27,02,46,14.50
2011,09,27,02,47,14.30
2011,09,27,02,48,14.10
2011,09,27,02,49,14.10
2011,09,27,02,50,14.10
2011,09,27,02,51,14.30
2011,09,27,02,52,14.40
2011,09,27,02,53,14.50
2011,09,27,02,54,14.70
2011,09,27,02,55,14.80
2011,09,27,02,56,14.80
2011,09,27,02,57,14.80
2011,09,27,02,58,14.80
2011,09,27,02,59,14.70
2011,09,27,03,00,14.60
2011,09,27,03,01,14.50
2011,09,27,03,02,14.50
2011,09,27,03,03,14.50
2011,09,27,03,04,14.50
2011,09,27,03,05,14.50
2011,09,27,03,06,14.50
2011,09,27,03,07,14.60
2011,09,27,03,08,14.50
2011,09,27,03,09,14.50
2011,09,27,03,10,14.50
2011,09,27,03,11,14.40
2011,09,27,03,12,14.30
2011,09,27,03,13,14.30
2011,09,27,03,14,14.30
2011,09,27,03,15,14.20
2011,09,27,03,16,14.20
2011,09,27,03,17,14.10
2011,09,27,03,18,14.10
2011,09,27,03,19,13.90
2011,09,27,03,20,13.80
2011,09,27,03,21,13.60
2011,09,27,03,22,13.40
2011,09,27,03,23,13.20
2011,09,27,03,24,13.00
2011,09,27,03,25,12.80
2011,09,27,03,26,12.70
2011,09,27,03,27,12.60
2011,09,27,03,28,12.50
2011,09,27,03,29,12.40
2011,09,27,03,30,12.30
2011,09,27,03,31,12.20
2011,09,27,03,32,12.20
2011,09,27,03,33,12.10
2011,09,27,03,34,12.00
2011,09,27,03,35,12.00
2011,09,27,03,36,12.00
2011,09,27,03,37,12.00
2011,09,27,03,38,11.90
2011,09,27,03,39,11.90
2011,09,27,03,40,11.90
2011,09,27,03,41,11.90
2011,09,27,03,42,11.90
2011,09,27,03,43,11.80
2011,09,27,03,44,11.80
2011,09,27,03,45,11.70
2011,09,27,03,46,11.70
2011,09,27,03,47,11.60
2011,09,27,03,48,11.50
2011,09,27,03,49,11.50
2011,09,27,03,50,11.50
2011,09,27,03,51,11.50
2011,09,27,03,52,11.60
2011,09,27,03,53,11.70
2011,09,27,03,54,11.90
2011,09,27,03,55,12.00
2011,09,27,03,56,12.10
2011,09,27,03,57,12.20
2011,09,27,03,58,12.10
2011,09,27,03,59,12.10
2011,09,27,04,00,12.10
2011,09,27,04,01,12.00
2011,09,27,04,02,12.00
2011,09,27,04,03,12.00
2011,09,27,04,04,12.00
2011,09,27,04,05,12.00
2011,09,27,04,06,12.00
2011,09,27,04,07,12.00
2011,09,27,04,08,12.00
2011,09,27,04,09,12.00
2011,09,27,04,10,11.90
2011,09,27,04,11,11.90
2011,09,27,04,12,11.80
2011,09,27,04,13,11.80
2011,09,27,04,14,11.70
2011,09,27,04,15,11.70
2011,09,27,04,16,11.60
2011,09,27,04,17,11.50
2011,09,27,04,18,11.40
2011,09,27,04,19,11.40
2011,09,27,04,20,11.30
2011,09,27,04,21,11.30
2011,09,27,04,22,11.30
2011,09,27,04,23,11.30
2011,09,27,04,24,11.30
2011,09,27,04,25,11.30
2011,09,27,04,26,11.30
2011,09,27,04,27,11.30
2011,09,27,04,28,11.30
2011,09,27,04,29,11.30
2011,09,27,04,30,11.30
2011,09,27,04,31,11.30
2011,09,27,04,32,11.30
2011,09,27,04,33,11.20
2011,09,27,04,34,11.20
2011,09,27,04,35,11.20
2011,09,27,04,36,11.20
2011,09,27,04,37,11.10
2011,09,27,04,38,11.10
2011,09,27,04,39,11.00
2011,09,27,04,40,11.00
2011,09,27,04,41,10.90
2011,09,27,04,42,10.90
2011,09,27,04,43,10.90
2011,09,27,04,44,10.80
2011,09,27,04,45,10.80
2011,09,27,04,46,10.70
2011,09,27,04,47,10.70
2011,09,27,04,48,10.60
2011,09,27,04,49,10.50
2011,09,27,04,50,10.50
2011,09,27,04,51,10.40
2011,09,27,04,52,10.30
2011,09,27,04,53,10.30
2011,09,27,04,54,10.20
2011,09,27,04,55,10.20
2011,09,27,04,56,10.10
2011,09,27,04,57,10.00
2011,09,27,04,58,10.00
2011,09,27,04,59,10.00
2011,09,27,05,00,9.90
2011,09,27,05,01,9.90
2011,09,27,05,02,9.90
2011,09,27,05,03,9.80
2011,09,27,05,04,9.80
2011,09,27,05,05,9.80
2011,09,27,05,06,9.70
2011,09,27,05,07,9.70
2011,09,27,05,08,9.60
2011,09,27,05,09,9.60
2011,09,27,05,10,9.60
2011,09,27,05,11,9.50
2011,09,27,05,12,9.60
2011,09,27,05,13,9.50
2011,09,27,05,14,9.60
2011,09,27,05,15,9.60
2011,09,27,05,16,9.60
2011,09,27,05,17,9.60
2011,09,27,05,18,9.60
2011,09,27,05,19,9.60
2011,09,27,05,20,9.70
2011,09,27,05,21,9.90
2011,09,27,05,22,10.00
2011,09,27,05,23,10.10
2011,09,27,05,24,10.30
2011,09,27,05,25,10.40
2011,09,27,05,26,10.50
2011,09,27,05,27,10.50
2011,09,27,05,28,10.60
2011,09,27,05,29,10.60
2011,09,27,05,30,10.50
2011,09,27,05,31,10.50
2011,09,27,05,32,10.40
2011,09,27,05,33,10.40
2011,09,27,05,34,10.30
2011,09,27,05,35,10.30
2011,09,27,05,36,10.30
2011,09,27,05,37,10.30
2011,09,27,05,38,10.30
2011,09,27,05,39,10.30
2011,09,27,05,40,10.30
2011,09,27,05,41,10.30
2011,09,27,05,42,10.20
2011,09,27,05,43,10.20
2011,09,27,05,44,10.20
2011,09,27,05,45,10.20
2011,09,27,05,46,10.20
2011,09,27,05,47,10.20
2011,09,27,05,48,10.20
2011,09,27,05,49,10.20
2011,09,27,05,50,10.30
2011,09,27,05,51,10.30
2011,09,27,05,52,10.30
2011,09,27,05,53,10.30
2011,09,27,05,54,10.30
2011,09,27,05,55,10.20
2011,09,27,05,56,10.10
2011,09,27,05,57,10.10
2011,09,27,05,58,10.10
2011,09,27,05,59,10.20
2011,09,27,06,00,10.30
2011,09,27,06,01,10.30
2011,09,27,06,02,10.30
2011,09,27,06,03,10.30
2011,09,27,06,04,10.40
2011,09,27,06,05,10.40
2011,09,27,06,06,10.40
2011,09,27,06,07,10.30
2011,09,27,06,08,10.30
2011,09,27,06,09,10.30
2011,09,27,06,10,10.30
2011,09,27,06,11,10.30
2011,09,27,06,12,10.30
2011,09,27,06,13,10.40
2011,09,27,06,14,10.40
2011,09,27,06,15,10.60
2011,09,27,06,16,10.70
2011,09,27,06,17,10.70
2011,09,27,06,18,10.70
2011,09,27,06,19,10.70
2011,09,27,06,20,10.70
2011,09,27,06,21,10.60
2011,09,27,06,22,10.60
2011,09,27,06,23,10.70
2011,09,27,06,24,10.70
2011,09,27,06,25,10.70
2011,09,27,06,26,10.80
2011,09,27,06,27,10.80
2011,09,27,06,28,10.80
2011,09,27,06,29,10.70
2011,09,27,06,30,10.60
2011,09,27,06,31,10.60
2011,09,27,06,32,10.50
2011,09,27,06,33,10.50
2011,09,27,06,34,10.50
2011,09,27,06,35,10.50
2011,09,27,06,36,10.40
2011,09,27,06,37,10.40
2011,09,27,06,38,10.40
2011,09,27,06,39,10.40
2011,09,27,06,40,10.40
2011,09,27,06,41,10.40
2011,09,27,06,42,10.40
2011,09,27,06,43,10.40
2011,09,27,06,44,10.40
2011,09,27,06,45,10.40
2011,09,27,06,46,10.40
2011,09,27,06,47,10.40
2011,09,27,06,48,10.40
2011,09,27,06,49,10.30
2011,09,27,06,50,10.30
2011,09,27,06,51,10.20
2011,09,27,06,52,10.20
2011,09,27,06,53,10.20
2011,09,27,06,54,10.20
2011,09,27,06,55,10.20
2011,09,27,06,56,10.20
2011,09,27,06,57,10.30
2011,09,27,06,58,10.30
2011,09,27,06,59,10.30
2011,09,27,07,00,10.30
2011,09,27,07,01,10.30
2011,09,27,07,02,10.30
2011,09,27,07,03,10.30
2011,09,27,07,04,10.30
2011,09,27,07,05,10.30
2011,09,27,07,06,10.30
2011,09,27,07,07,10.20
2011,09,27,07,08,10.20
2011,09,27,07,09,10.20
2011,09,27,07,10,10.20
2011,09,27,07,11,10.20
2011,09,27,07,12,10.10
2011,09,27,07,13,10.10
2011,09,27,07,14,10.00
2011,09,27,07,15,10.00
2011,09,27,07,16,10.00
2011,09,27,07,17,10.00
2011,09,27,07,18,9.90
2011,09,27,07,19,9.80
2011,09,27,07,20,9.80
2011,09,27,07,21,9.80
2011,09,27,07,22,9.70
2011,09,27,07,23,9.70
2011,09,27,07,24,9.60
2011,09,27,07,25,9.60
2011,09,27,07,26,9.60
2011,09,27,07,27,9.60
2011,09,27,07,28,9.60
2011,09,27,07,29,9.70
2011,09,27,07,30,9.70
2011,09,27,07,31,9.70
2011,09,27,07,32,9.70
2011,09,27,07,33,9.70
2011,09,27,07,34,9.70
2011,09,27,07,35,9.70
2011,09,27,07,36,9.70
2011,09,27,07,37,9.70
2011,09,27,07,38,9.70
2011,09,27,07,39,9.70
2011,09,27,07,40,9.70
2011,09,27,07,41,9.60
2011,09,27,07,42,9.60
2011,09,27,07,43,9.60
2011,09,27,07,44,9.60
2011,09,27,07,45,9.60
2011,09,27,07,46,9.60
2011,09,27,07,47,9.70
2011,09,27,07,48,9.70
2011,09,27,07,49,9.70
2011,09,27,07,50,9.80
2011,09,27,07,51,9.80
2011,09,27,07,52,9.80
2011,09,27,07,53,9.80
2011,09,27,07,54,9.80
2011,09,27,07,55,9.80
2011,09,27,07,56,9.80
2011,09,27,07,57,9.80
2011,09,27,07,58,9.90
2011,09,27,07,59,9.90
2011,09,27,08,00,9.90
2011,09,27,08,01,9.90
2011,09,27,08,02,10.00
2011,09,27,08,03,10.00
2011,09,27,08,04,10.10
2011,09,27,08,05,10.10
2011,09,27,08,06,10.10
2011,09,27,08,07,10.10
2011,09,27,08,08,10.10
2011,09,27,08,09,10.10
2011,09,27,08,10,10.20
2011,09,27,08,11,10.20
2011,09,27,08,12,10.20
2011,09,27,08,13,10.20
2011,09,27,08,14,10.30
2011,09,27,08,15,10.30
2011,09,27,08,16,10.40
2011,09,27,08,17,10.40
2011,09,27,08,18,10.50
2011,09,27,08,19,10.50
2011,09,27,08,20,10.60
2011,09,27,08,21,10.60
2011,09,27,08,22,10.60
2011,09,27,08,23,10.60
2011,09,27,08,24,10.60
2011,09,27,08,25,10.70
2011,09,27,08,26,10.80
2011,09,27,08,27,10.80
2011,09,27,08,28,10.90
2011,09,27,08,29,11.00
2011,09,27,08,30,11.10
2011,09,27,08,31,11.20
2011,09,27,08,32,11.20
2011,09,27,08,33,11.30
2011,09,27,08,34,11.40
2011,09,27,08,35,11.50
2011,09,27,08,36,11.50
2011,09,27,08,37,11.60
2011,09,27,08,38,11.70
2011,09,27,08,39,11.80
2011,09,27,08,40,11.90
2011,09,27,08,41,11.90
2011,09,27,08,42,11.90
2011,09,27,08,43,12.00
2011,09,27,08,44,12.00
2011,09,27,08,45,12.00
2011,09,27,08,46,11.90
2011,09,27,08,47,11.90
2011,09,27,08,48,11.90
2011,09,27,08,49,11.90
2011,09,27,08,50,11.90
2011,09,27,08,51,11.90
2011,09,27,08,52,11.90
2011,09,27,08,53,11.90
2011,09,27,08,54,11.90
2011,09,27,08,55,11.90
2011,09,27,08,56,12.00
2011,09,27,08,57,12.00
2011,09,27,08,58,12.00
2011,09,27,08,59,12.10
2011,09,27,09,00,12.10
2011,09,27,09,01,12.20
2011,09,27,09,02,12.20
2011,09,27,09,03,12.20
2011,09,27,09,04,12.30
2011,09,27,09,05,12.30
2011,09,27,09,06,12.40
2011,09,27,09,07,12.40
2011,09,27,09,08,12.50
2011,09,27,09,09,12.60
2011,09,27,09,10,12.60
2011,09,27,09,11,12.70
2011,09,27,09,12,12.70
2011,09,27,09,13,12.80
2011,09,27,09,14,12.80
2011,09,27,09,15,12.80
2011,09,27,09,16,12.90
2011,09,27,09,17,12.90
2011,09,27,09,18,12.90
2011,09,27,09,19,12.90
2011,09,27,09,20,12.90
2011,09,27,09,21,12.90
2011,09,27,09,22,12.90
2011,09,27,09,23,12.90
2011,09,27,09,24,12.90
2011,09,27,09,25,12.90
2011,09,27,09,26,12.90
2011,09,27,09,27,13.00
2011,09,27,09,28,13.00
2011,09,27,09,29,13.00
2011,09,27,09,30,13.10
2011,09,27,09,31,13.10
2011,09,27,09,32,13.10
2011,09,27,09,33,13.20
2011,09,27,09,34,13.20
2011,09,27,09,35,13.20
2011,09,27,09,36,13.30
2011,09,27,09,37,13.30
2011,09,27,09,38,13.30
2011,09,27,09,39,13.40
2011,09,27,09,40,13.30
2011,09,27,09,41,13.30
2011,09,27,09,42,13.30
2011,09,27,09,43,13.30
2011,09,27,09,44,13.30
2011,09,27,09,45,13.30
2011,09,27,09,46,13.30
2011,09,27,09,47,13.30
2011,09,27,09,48,13.30
2011,09,27,09,49,13.30
2011,09,27,09,50,13.30
2011,09,27,09,51,13.30
2011,09,27,09,52,13.30
2011,09,27,09,53,13.30
2011,09,27,09,54,13.30
2011,09,27,09,55,13.30
2011,09,27,09,56,13.30
2011,09,27,09,57,13.30
2011,09,27,09,58,13.30
2011,09,27,09,59,13.30
2011,09,27,10,00,13.30
2011,09,27,10,01,13.20
2011,09,27,10,02,13.30
2011,09,27,10,03,13.30
2011,09,27,10,04,13.30
2011,09,27,10,05,13.30
2011,09,27,10,06,13.30
2011,09,27,10,07,13.30
2011,09,27,10,08,13.30
2011,09,27,10,09,13.30
2011,09,27,10,10,13.30
2011,09,27,10,11,13.30
2011,09,27,10,12,13.30
2011,09,27,10,13,13.30
2011,09,27,10,14,13.30
2011,09,27,10,15,13.20
2011,09,27,10,16,13.20
2011,09,27,10,17,13.20
2011,09,27,10,18,13.30
2011,09,27,10,19,13.30
2011,09,27,10,20,13.30
2011,09,27,10,21,13.30
2011,09,27,10,22,13.30
2011,09,27,10,23,13.30
2011,09,27,10,24,13.30
2011,09,27,10,25,13.40
2011,09,27,10,26,13.40
2011,09,27,10,27,13.40
2011,09,27,10,28,13.40
2011,09,27,10,29,13.40
2011,09,27,10,30,13.40
2011,09,27,10,31,13.40
2011,09,27,10,32,13.40
2011,09,27,10,33,13.50
2011,09,27,10,34,13.50
2011,09,27,10,35,13.50
2011,09,27,10,36,13.50
2011,09,27,10,37,13.60
2011,09,27,10,38,13.60
2011,09,27,10,39,13.60
2011,09,27,10,40,13.60
2011,09,27,10,41,13.70
2011,09,27,10,42,13.70
2011,09,27,10,43,13.70
2011,09,27,10,44,13.70
2011,09,27,10,45,13.80
2011,09,27,10,46,13.80
2011,09,27,10,47,13.80
2011,09,27,10,48,13.80
2011,09,27,10,49,13.90
2011,09,27,10,50,13.90
2011,09,27,10,51,13.90
2011,09,27,10,52,13.90
2011,09,27,10,53,13.90
2011,09,27,10,54,14.00
2011,09,27,10,55,14.00
2011,09,27,10,56,14.00
2011,09,27,10,57,14.00
2011,09,27,10,58,14.00
2011,09,27,10,59,14.00
2011,09,27,11,00,14.10
2011,09,27,11,01,14.00
2011,09,27,11,02,13.90
2011,09,27,11,03,13.90
2011,09,27,11,04,13.90
2011,09,27,11,05,13.90
2011,09,27,11,06,13.80
2011,09,27,11,07,13.80
2011,09,27,11,08,13.80
2011,09,27,11,09,13.80
2011,09,27,11,10,13.80
2011,09,27,11,11,13.80
2011,09,27,11,12,13.80
2011,09,27,11,13,13.80
2011,09,27,11,14,13.90
2011,09,27,11,15,14.00
2011,09,27,11,16,14.10
2011,09,27,11,17,14.10
2011,09,27,11,18,14.20
2011,09,27,11,19,14.20
2011,09,27,11,20,14.20
2011,09,27,11,21,14.20
2011,09,27,11,22,14.20
2011,09,27,11,23,14.20
2011,09,27,11,24,14.20
2011,09,27,11,25,14.20
2011,09,27,11,26,14.20
2011,09,27,11,27,14.20
2011,09,27,11,28,14.30
2011,09,27,11,29,14.30
2011,09,27,11,30,14.30
2011,09,27,11,31,14.30
2011,09,27,11,32,14.30
2011,09,27,11,33,14.30
2011,09,27,11,34,14.30
2011,09,27,11,35,14.30
2011,09,27,11,36,14.40
2011,09,27,11,37,14.40
2011,09,27,11,38,14.40
2011,09,27,11,39,14.40
2011,09,27,11,40,14.40
2011,09,27,11,41,14.40
2011,09,27,11,42,14.40
2011,09,27,11,43,14.40
2011,09,27,11,44,14.50
2011,09,27,11,45,14.50
2011,09,27,11,46,14.50
2011,09,27,11,47,14.50
2011,09,27,11,48,14.50
2011,09,27,11,49,14.60
2011,09,27,11,50,14.60
2011,09,27,11,51,14.60
2011,09,27,11,52,14.60
2011,09,27,11,53,14.60
2011,09,27,11,54,14.60
2011,09,27,11,55,14.60
2011,09,27,11,56,14.60
2011,09,27,11,57,14.60
2011,09,27,11,58,14.60
2011,09,27,11,59,14.60
2011,09,27,12,00,14.70
2011,09,27,12,01,14.70
2011,09,27,12,02,14.70
2011,09,27,12,03,14.70
2011,09,27,12,04,14.70
2011,09,27,12,05,14.70
2011,09,27,12,06,14.70
2011,09,27,12,07,14.70
2011,09,27,12,08,14.80
2011,09,27,12,09,14.80
2011,09,27,12,10,14.80
2011,09,27,12,11,14.80
2011,09,27,12,12,14.90
2011,09,27,12,13,14.90
2011,09,27,12,14,14.90
2011,09,27,12,15,14.90
2011,09,27,12,16,15.00
2011,09,27,12,17,15.00
2011,09,27,12,18,15.10
2011,09,27,12,19,15.10
2011,09,27,12,20,15.10
2011,09,27,12,21,15.20
2011,09,27,12,22,15.20
2011,09,27,12,23,15.30
2011,09,27,12,24,15.30
2011,09,27,12,25,15.30
2011,09,27,12,26,15.30
2011,09,27,12,27,15.30
2011,09,27,12,28,15.30
2011,09,27,12,29,15.30
2011,09,27,12,30,15.40
2011,09,27,12,31,15.40
2011,09,27,12,32,15.40
2011,09,27,12,33,15.40
2011,09,27,12,34,15.40
2011,09,27,12,35,15.40
2011,09,27,12,36,15.40
2011,09,27,12,37,15.40
2011,09,27,12,38,15.40
2011,09,27,12,39,15.40
2011,09,27,12,40,15.30
2011,09,27,12,41,15.30
2011,09,27,12,42,15.30
2011,09,27,12,43,15.30
2011,09,27,12,44,15.30
2011,09,27,12,45,15.30
2011,09,27,12,46,15.30
2011,09,27,12,47,15.30
2011,09,27,12,48,15.30
2011,09,27,12,49,15.30
2011,09,27,12,50,15.30
2011,09,27,12,51,15.30
2011,09,27,12,52,15.30
2011,09,27,12,53,15.20
2011,09,27,12,54,15.20
2011,09,27,12,55,15.20
2011,09,27,12,56,15.10
2011,09,27,12,57,15.10
2011,09,27,12,58,15.10
2011,09,27,12,59,15.10
2011,09,27,13,00,15.10
2011,09,27,13,01,15.10
2011,09,27,13,02,15.20
2011,09,27,13,03,15.20
2011,09,27,13,04,15.20
2011,09,27,13,05,15.20
2011,09,27,13,06,15.20
2011,09,27,13,07,15.30
2011,09,27,13,08,15.30
2011,09,27,13,09,15.30
2011,09,27,13,10,15.30
2011,09,27,13,11,15.30
2011,09,27,13,12,15.30
2011,09,27,13,13,15.40
2011,09,27,13,14,15.40
2011,09,27,13,15,15.40
2011,09,27,13,16,15.40
2011,09,27,13,17,15.40
2011,09,27,13,18,15.40
2011,09,27,13,19,15.50
2011,09,27,13,20,15.50
2011,09,27,13,21,15.60
2011,09,27,13,22,15.60
2011,09,27,13,23,15.70
2011,09,27,13,24,15.70
2011,09,27,13,25,15.70
2011,09,27,13,26,15.80
2011,09,27,13,27,15.80
2011,09,27,13,28,15.80
2011,09,27,13,29,15.80
2011,09,27,13,30,15.80
2011,09,27,13,31,15.80
2011,09,27,13,32,15.90
2011,09,27,13,33,15.90
2011,09,27,13,34,15.90
2011,09,27,13,35,15.90
2011,09,27,13,36,16.00
2011,09,27,13,37,16.10
2011,09,27,13,38,16.10
2011,09,27,13,39,16.10
2011,09,27,13,40,16.10
2011,09,27,13,41,16.10
2011,09,27,13,42,16.10
2011,09,27,13,43,16.00
2011,09,27,13,44,16.00
2011,09,27,13,45,15.90
2011,09,27,13,46,15.90
2011,09,27,13,47,15.90
2011,09,27,13,48,15.90
2011,09,27,13,49,15.90
2011,09,27,13,50,15.90
2011,09,27,13,51,15.90
2011,09,27,13,52,15.90
2011,09,27,13,53,15.90
2011,09,27,13,54,15.90
2011,09,27,13,55,15.90
2011,09,27,13,56,15.90
2011,09,27,13,57,15.90
2011,09,27,13,58,15.80
2011,09,27,13,59,15.80
2011,09,27,14,00,15.80
2011,09,27,14,01,15.80
2011,09,27,14,02,15.80
2011,09,27,14,03,15.80
2011,09,27,14,04,15.80
2011,09,27,14,05,15.90
2011,09,27,14,06,15.90
2011,09,27,14,07,15.90
2011,09,27,14,08,16.00
2011,09,27,14,09,16.10
2011,09,27,14,10,16.10
2011,09,27,14,11,16.20
2011,09,27,14,12,16.20
2011,09,27,14,13,16.20
2011,09,27,14,14,16.20
2011,09,27,14,15,16.20
2011,09,27,14,16,16.20
2011,09,27,14,17,16.20
2011,09,27,14,18,16.20
2011,09,27,14,19,16.20
2011,09,27,14,20,16.20
2011,09,27,14,21,16.30
2011,09,27,14,22,16.30
2011,09,27,14,23,16.30
2011,09,27,14,24,16.40
2011,09,27,14,25,16.40
2011,09,27,14,26,16.50
2011,09,27,14,27,16.50
2011,09,27,14,28,16.50
2011,09,27,14,29,16.50
2011,09,27,14,30,16.50
2011,09,27,14,31,16.50
2011,09,27,14,32,16.50
2011,09,27,14,33,16.40
2011,09,27,14,34,16.40
2011,09,27,14,35,16.30
2011,09,27,14,36,16.30
2011,09,27,14,37,16.40
2011,09,27,14,38,16.40
2011,09,27,14,39,16.50
2011,09,27,14,40,16.50
2011,09,27,14,41,16.60
2011,09,27,14,42,16.60
2011,09,27,14,43,16.70
2011,09,27,14,44,16.70
2011,09,27,14,45,16.70
2011,09,27,14,46,16.70
2011,09,27,14,47,16.70
2011,09,27,14,48,16.70
2011,09,27,14,49,16.70
2011,09,27,14,50,16.60
2011,09,27,14,51,16.60
2011,09,27,14,52,16.60
2011,09,27,14,53,16.60
2011,09,27,14,54,16.60
2011,09,27,14,55,16.60
2011,09,27,14,56,16.60
2011,09,27,14,57,16.70
2011,09,27,14,58,16.70
2011,09,27,14,59,16.70
2011,09,27,15,00,16.60
2011,09,27,15,01,16.60
2011,09,27,15,02,16.60
2011,09,27,15,03,16.60
2011,09,27,15,04,16.60
2011,09,27,15,05,16.60
2011,09,27,15,06,16.60
2011,09,27,15,07,16.50
2011,09,27,15,08,16.50
2011,09,27,15,09,16.50
2011,09,27,15,10,16.50
2011,09,27,15,11,16.60
2011,09,27,15,12,16.60
2011,09,27,15,13,16.60
2011,09,27,15,14,16.60
2011,09,27,15,15,16.60
2011,09,27,15,16,16.60
2011,09,27,15,17,16.60
2011,09,27,15,18,16.60
2011,09,27,15,19,16.60
2011,09,27,15,20,16.60
2011,09,27,15,21,16.60
2011,09,27,15,22,16.60
2011,09,27,15,23,16.60
2011,09,27,15,24,16.60
2011,09,27,15,25,16.60
2011,09,27,15,26,16.60
2011,09,27,15,27,16.60
2011,09,27,15,28,16.60
2011,09,27,15,29,16.60
2011,09,27,15,30,16.50
2011,09,27,15,31,16.50
2011,09,27,15,32,16.50
2011,09,27,15,33,16.50
2011,09,27,15,34,16.50
2011,09,27,15,35,16.50
2011,09,27,15,36,16.40
2011,09,27,15,37,16.40
2011,09,27,15,38,16.40
2011,09,27,15,39,16.40
2011,09,27,15,40,16.40
2011,09,27,15,41,16.40
2011,09,27,15,42,16.40
2011,09,27,15,43,16.40
2011,09,27,15,44,16.40
2011,09,27,15,45,16.40
2011,09,27,15,46,16.40
2011,09,27,15,47,16.40
2011,09,27,15,48,16.40
2011,09,27,15,49,16.40
2011,09,27,15,50,16.40
2011,09,27,15,51,16.40
2011,09,27,15,52,16.40
2011,09,27,15,53,16.30
2011,09,27,15,54,16.30
2011,09,27,15,55,16.30
2011,09,27,15,56,16.20
2011,09,27,15,57,16.20
2011,09,27,15,58,16.30
2011,09,27,15,59,16.30
2011,09,27,16,00,16.20
2011,09,27,16,01,16.20
2011,09,27,16,02,16.20
2011,09,27,16,03,16.20
2011,09,27,16,04,16.00
2011,09,27,16,05,16.00
2011,09,27,16,06,15.90
2011,09,27,16,07,15.90
2011,09,27,16,08,15.90
2011,09,27,16,09,16.00
2011,09,27,16,10,16.00
2011,09,27,16,11,16.10
2011,09,27,16,12,16.20
2011,09,27,16,13,16.20
2011,09,27,16,14,16.10
2011,09,27,16,15,16.10
2011,09,27,16,16,16.00
2011,09,27,16,17,16.00
2011,09,27,16,18,15.90
2011,09,27,16,19,15.90
2011,09,27,16,20,15.90
2011,09,27,16,21,15.90
2011,09,27,16,22,15.90
2011,09,27,16,23,15.90
2011,09,27,16,24,15.90
2011,09,27,16,25,15.80
2011,09,27,16,26,15.70
2011,09,27,16,27,15.70
2011,09,27,16,28,15.60
2011,09,27,16,29,15.60
2011,09,27,16,30,15.50
2011,09,27,16,31,15.50
2011,09,27,16,32,15.40
2011,09,27,16,33,15.40
2011,09,27,16,34,15.40
2011,09,27,16,35,15.30
2011,09,27,16,36,15.30
2011,09,27,16,37,15.30
2011,09,27,16,38,15.20
2011,09,27,16,39,15.20
2011,09,27,16,40,15.20
2011,09,27,16,41,15.20
2011,09,27,16,42,15.20
2011,09,27,16,43,15.20
2011,09,27,16,44,15.20
2011,09,27,16,45,15.20
2011,09,27,16,46,15.20
2011,09,27,16,47,15.20
2011,09,27,16,48,15.20
2011,09,27,16,49,15.20
2011,09,27,16,50,15.20
2011,09,27,16,51,15.20
2011,09,27,16,52,15.20
2011,09,27,16,53,15.20
2011,09,27,16,54,15.20
2011,09,27,16,55,15.20
2011,09,27,16,56,15.10
2011,09,27,16,57,15.10
2011,09,27,16,58,15.10
2011,09,27,16,59,15.10
2011,09,27,17,00,15.00
2011,09,27,17,01,15.00
2011,09,27,17,02,14.90
2011,09,27,17,03,14.90
2011,09,27,17,04,14.90
2011,09,27,17,05,14.90
2011,09,27,17,06,14.90
2011,09,27,17,07,14.80
2011,09,27,17,08,14.80
2011,09,27,17,09,14.80
2011,09,27,17,10,14.80
2011,09,27,17,11,14.80
2011,09,27,17,12,14.80
2011,09,27,17,13,14.80
2011,09,27,17,14,14.80
2011,09,27,17,15,14.80
2011,09,27,17,16,14.80
2011,09,27,17,17,14.80
2011,09,27,17,18,14.80
2011,09,27,17,19,14.80
2011,09,27,17,20,14.90
2011,09,27,17,21,14.90
2011,09,27,17,22,15.00